SCP
2 2 1 1 1 1 1 1 0 0 0 1 1 1 1 1 1 1 1 1 0 0 0 0 0 0 0 0 0 0 0 0 0 0 0 1 1 0
2 1 1 1 1 1 1 1 1 0 0 1 1 1 1 1 1 1 1 1 0 0 0 0 0 0 0 0 0 0 0 0 0 0 0 0 0 0
2 1 1 1 1 1 1 1 1 1 1 0 1 1 1 1 1 1 1 0 0 0 0 0 0 0 0 0 0 0 0 0 0 0 0 0 0 0
1 1 1 1 1 1 1 1 1 1 1 0 0 1 1 0 1 1 0 0 0 0 0 0 0 0 0 0 0 0 0 0 0 0 0 0 0 0
1 1 1 1 1 1 1 1 1 1 1 0 0 0 0 0 0 0 0 0 0 0 0 0 0 0 0 0 0 0 0 0 0 0 0 0 0 0
0 0 0 0 0 0 0 0 1 1 0 0 0 0 0 0 0 0 0 0 0 0 0 0 0 0 0 0 0 0 0 0 0 0 0 0 0 0
0 0 0 0 0 0 0 0 0 0 0 0 0 0 0 0 0 0 0 0 0 0 0 0 0 0 0 0 0 0 0 0 0 0 0 0 0 0
0 0 0 0 0 0 0 0 0 0 0 0 0 0 0 0 0 0 0 0 0 0 0 0 0 0 0 0 0 0 0 0 0 0 0 0 0 0
0 0 0 0 0 0 0 0 0 0 0 0 0 0 0 0 0 0 0 0 0 0 0 0 0 0 0 0 0 0 0 0 0 0 0 0 0 0
0 0 0 0 0 0 0 0 0 0 0 0 0 0 0 0 0 0 0 0 0 0 0 1 0 0 0 0 0 0 0 0 0 0 0 0 0 0
0 0 0 0 0 0 0 0 0 0 0 0 0 0 0 0 0 0 0 0 0 0 0 0 0 0 0 0 0 0 0 0 0 0 0 0 0 0
0 0 0 0 0 0 0 0 0 0 0 0 0 0 0 0 0 0 0 0 0 0 0 0 0 0 0 0 0 0 0 0 0 0 0 0 0 0
0 0 0 0 0 0 0 0 0 0 0 0 0 0 0 0 0 0 0 1 1 0 0 0 0 0 0 0 0 0 0 0 0 0 0 0 0 0
0 0 0 0 0 0 0 0 0 0 0 0 0 0 0 0 0 1 1 1 1 1 1 1 1 1 1 1 0 0 0 0 0 0 0 0 0 0
0 0 0 0 0 0 0 0 0 0 0 0 0 0 0 0 0 1 1 1 1 1 1 1 1 1 1 1 1 1 0 0 0 0 0 0 0 0
0 0 0 0 0 0 0 0 0 0 0 0 0 0 1 0 0 0 0 1 1 1 1 1 1 1 1 1 1 1 1 1 1 1 0 0 0 0
0 0 0 0 0 0 0 0 0 0 0 0 0 0 0 0 0 0 0 1 1 1 1 1 1 1 1 1 1 1 1 1 1 1 1 1 1 1
0 0 0 0 0 0 0 0 0 0 0 0 0 0 0 0 0 0 0 0 0 0 0 0 0 1 1 1 1 1 1 1 1 1 1 1 1 1
0 0 0 0 0 0 0 0 0 0 0 0 0 0 0 0 0 0 0 0 0 0 0 0 0 0 0 0 1 1 1 1 1 1 1 1 1 1
0 0 0 0 0 0 0 0 0 0 0 0 0 0 0 0 0 0 0 0 0 0 0 0 0 0 0 0 0 0 0 0 1 1 1 1 0 1
0 0 0 0 0 0 0 0 0 0 0 0 0 0 0 0 0 0 0 0 0 0 0 0 0 0 0 0 0 0 0 0 0 0 0 0 0 0
0 0 0 0 0 0 0 0 0 0 0 0 0 0 0 0 0 0 0 0 0 0 0 0 0 0 0 0 0 0 0 0 0 0 0 0 0 0
0 0 0 0 0 0 0 0 0 0 0 0 0 0 0 0 0 0 0 0 0 0 0 0 0 0 0 0 0 0 0 0 0 0 0 0 0 0
Wind_Speed
4 4 3 2 2 2 2 2 1 2 1 1 1 2 2 2 4 2 3 4 4 2 1 0 1 1 1 1 1 1 1 1 0 2 3 3 3 4
3 3 3 2 2 2 2 2 2 2 2 1 1 2 3 3 4 2 3 6 5 4 4 3 2 1 1 0 0 0 0 1 1 2 3 4 4 5
4 4 3 3 2 2 2 2 2 1 1 1 0 2 2 2 3 2 3 4 4 7 6 5 4 3 3 2 2 1 1 1 2 3 3 4 4 5
4 3 3 2 2 2 2 2 2 1 1 1 1 1 2 3 3 3 3 4 3 7 8 7 6 5 5 4 4 3 3 2 2 2 3 4 5 5
4 3 3 3 3 2 2 2 2 1 1 1 2 1 2 2 2 3 3 2 3 6 8 7 7 7 7 7 6 5 5 4 4 4 4 5 5 6
3 3 3 2 3 3 3 2 2 1 2 2 2 2 1 2 2 2 2 2 2 3 4 5 8 9 9 9 8 7 6 6 5 5 5 5 6 6
3 3 2 2 2 1 2 2 2 2 2 1 1 1 1 1 2 2 2 2 2 2 1 2 3 4 6 8 9 9 9 8 7 6 6 6 6 6
4 3 2 1 1 1 2 2 2 2 2 1 1 1 1 1 1 2 1 1 2 1 1 2 2 3 4 5 9 12 11 10 9 8 8 7 7 7
3 3 4 3 3 2 2 4 3 4 5 3 2 2 2 2 1 2 2 2 3 2 2 3 2 3 4 5 11 12 12 12 11 10 9 9 9 8
3 3 3 2 3 3 3 2 2 2 3 3 3 3 3 1 2 2 3 3 3 3 3 3 3 3 3 2 9 13 13 13 12 12 11 11 10 10
3 3 2 2 3 3 2 2 3 2 3 3 3 3 3 4 3 1 2 2 3 3 2 2 3 3 2 2 6 12 13 13 13 13 13 12 12 10
2 1 1 2 2 2 2 3 3 4 3 3 3 4 4 5 7 5 4 3 3 3 2 2 3 2 2 2 3 4 7 10 13 14 14 14 13 7
3 2 1 1 2 3 3 3 5 5 4 4 3 4 4 4 4 5 5 4 3 3 3 2 2 2 2 2 2 3 5 5 6 8 13 15 15 11
4 3 2 3 4 5 5 6 7 6 4 4 4 4 4 4 4 5 6 6 6 6 5 3 3 3 3 3 3 3 4 4 5 6 7 11 13 16
4 5 7 8 7 6 8 10 7 4 4 4 4 4 3 3 3 3 4 5 6 7 7 6 6 5 4 4 4 3 3 4 5 5 5 6 7 7
4 6 8 9 8 8 8 7 6 5 5 4 4 3 3 3 3 3 4 3 4 5 6 7 7 6 5 6 5 5 5 4 4 5 6 5 6 6
4 4 5 5 4 5 5 4 4 4 5 4 4 4 3 3 4 4 3 3 3 4 4 4 6 7 8 6 5 6 5 5 5 5 4 5 5 6
4 5 6 5 5 5 4 4 4 4 3 3 3 3 3 3 4 3 3 3 4 4 4 4 3 3 4 6 9 8 6 5 5 5 5 5 6 6
4 7 6 6 5 5 4 4 3 3 3 3 3 3 3 4 4 4 4 4 4 4 4 4 4 4 5 6 7 9 7 6 5 5 5 6 6 6
6 7 6 5 5 4 4 4 3 3 3 3 4 4 4 4 4 4 4 5 5 5 5 5 4 5 5 5 5 5 8 7 5 6 6 5 6 8
6 5 5 4 4 3 3 3 3 3 4 4 4 4 4 4 4 5 5 6 5 5 6 6 6 8 5 3 4 5 6 9 9 6 6 6 6 5
5 4 4 3 3 3 3 3 3 3 3 3 4 4 4 4 5 6 6 5 5 5 6 5 5 4 4 6 7 7 7 7 9 13 12 10 6 5
4 4 4 3 3 3 3 3 3 2 2 3 3 3 3 4 4 4 5 6 5 5 5 5 4 4 5 5 6 6 8 7 5 5 6 10 14 14
Wind_Direction
311 310 302 294 297 296 287 266 251 265 262 209 173 156 142 130 156 174 150 158 163 164 164 155 10 351 349 20 51 38 351 309 204 182 184 182 181 182
308 314 308 304 305 292 270 262 258 261 268 231 183 167 160 163 175 185 167 166 184 191 195 198 211 240 252 205 38 7 326 244 217 200 195 193 194 189
327 329 322 317 320 305 301 286 273 262 250 255 173 158 174 173 176 201 185 188 188 199 202 207 210 213 220 218 222 235 248 239 220 216 208 203 196 189
329 331 327 329 326 311 313 294 286 247 209 220 204 193 208 194 189 219 216 202 184 193 200 207 210 211 213 216 215 218 222 226 217 210 206 200 192 187
335 333 331 330 329 327 308 300 293 285 206 209 225 207 221 204 197 233 236 214 220 185 196 209 216 217 216 217 217 218 218 217 210 201 199 196 192 189
337 332 333 338 337 328 321 317 304 293 251 232 212 206 212 206 201 226 240 228 245 212 200 200 209 217 219 218 218 216 216 215 209 205 201 197 195 194
334 331 327 339 0 323 322 321 311 288 272 248 230 227 207 207 224 235 247 246 244 234 209 216 201 211 215 222 220 217 213 212 211 207 202 196 194 193
324 321 310 301 309 238 261 284 292 293 306 282 261 249 255 245 254 263 263 271 272 244 234 257 218 219 218 204 205 205 207 208 209 208 204 201 200 202
318 320 318 334 334 300 260 245 251 251 242 244 256 266 256 240 247 274 273 265 261 262 251 264 254 243 234 208 192 197 201 204 206 208 209 208 208 211
290 296 297 314 332 325 295 284 268 274 258 237 242 255 258 251 249 255 258 262 261 255 230 249 252 248 254 198 193 195 199 203 207 209 211 213 214 217
281 297 300 310 338 329 302 290 288 275 279 273 255 252 246 248 240 250 257 252 273 271 227 229 248 250 245 217 202 201 204 206 211 213 215 217 219 220
293 285 324 330 325 327 299 292 286 285 291 283 268 260 246 241 233 222 227 240 257 267 247 234 254 248 262 241 199 191 210 220 222 223 222 222 218 212
303 296 299 308 302 298 286 270 268 281 285 273 256 248 239 231 222 218 217 220 237 251 248 237 272 269 255 267 244 206 203 210 213 225 227 226 220 207
300 313 313 296 294 289 277 266 271 277 268 264 257 251 243 237 230 223 217 219 225 234 246 235 244 255 258 265 262 239 226 218 211 213 214 216 221 220
284 296 290 278 281 274 257 260 265 256 251 255 256 254 250 244 239 237 235 225 228 238 243 230 226 240 241 247 254 253 247 237 225 222 218 209 207 206
270 286 281 269 266 269 269 257 240 238 238 249 259 265 263 254 247 241 238 229 235 246 244 236 229 229 239 245 244 247 242 238 230 225 222 223 216 209
310 284 276 267 260 256 255 250 238 229 232 241 250 259 261 259 253 245 241 242 243 251 255 244 232 226 229 235 246 247 244 244 238 233 232 237 233 223
302 280 279 273 271 269 262 257 249 244 239 235 238 246 253 259 265 264 254 249 253 253 253 253 249 242 242 242 231 242 249 247 244 238 236 242 247 237
257 265 266 264 266 269 271 271 269 252 234 241 248 250 256 262 262 260 257 256 256 254 250 248 250 250 258 261 250 225 231 243 246 246 239 236 243 242
243 254 258 258 257 258 259 258 260 256 243 246 253 253 251 257 264 264 260 258 261 261 263 257 248 242 244 257 267 264 233 234 239 244 249 248 245 246
267 259 258 263 266 263 260 257 253 250 249 245 249 252 253 258 267 270 267 266 260 259 262 259 253 249 245 252 265 264 253 235 233 236 245 253 256 256
281 287 284 280 283 280 279 277 275 267 264 262 264 265 263 261 266 271 275 273 262 259 262 262 259 258 248 248 256 262 262 257 245 243 244 236 235 242
291 299 300 295 295 290 284 284 285 286 282 283 281 274 275 278 276 277 279 279 279 280 281 278 272 262 259 259 263 267 272 270 265 255 253 247 239 243